This is the latest recevied weather packets stored in our database for station/object KD7CIH. If no packets are shown the sender has not sent any weather packets the latest 10 day(s).
| Time | Temp. | Humidity | Pressure | Rain* | Wind** | Luminosity | Snow |
|---|---|---|---|---|---|---|---|
| 1788392917 | 22.78° C | 30% | 1010.5 hPa | 0 mm | - | - | - |
| 1788392615 | 22.78° C | 29% | 1010.5 hPa | 0 mm | - | - | - |
| 1788392314 | 23.33° C | 31% | 1010.5 hPa | 0 mm | - | - | - |
| 1788392014 | 23.33° C | 31% | 1010.5 hPa | 0 mm | - | - | - |
| 1788391714 | 23.33° C | 30% | 1010.5 hPa | 0 mm | - | - | - |
| 1788391415 | 23.33° C | 30% | 1010.5 hPa | 0 mm | - | - | - |
| 1788391116 | 23.33° C | 30% | 1010.5 hPa | 0 mm | - | - | - |
| 1788390815 | 23.33° C | 30% | 1010.5 hPa | 0 mm | - | - | - |
| 1788390513 | 23.89° C | 30% | 1010.5 hPa | 0 mm | - | - | - |
| 1788390215 | 24.44° C | 30% | 1010.2 hPa | 0 mm | - | - | - |
| 1788389914 | 23.89° C | 31% | 1010.4 hPa | 0 mm | - | - | - |
| 1788389613 | 23.89° C | 31% | 1010.5 hPa | 0 mm | - | - | - |
| 1788389313 | 23.89° C | 30% | 1010.7 hPa | 0 mm | - | - | - |
| 1788389015 | 23.89° C | 29% | 1010.7 hPa | 0 mm | - | - | - |
| 1788388713 | 23.33° C | 31% | 1010.7 hPa | 0 mm | - | - | - |
| 1788388412 | 23.33° C | 31% | 1010.8 hPa | 0 mm | - | - | - |
| 1788388113 | 23.33° C | 29% | 1010.7 hPa | 0 mm | - | - | - |
| 1788387817 | 23.89° C | 29% | 1010.8 hPa | 0 mm | - | - | - |
| 1788387644 | 24.44° C | 28% | 1010.8 hPa | 0 mm | - | - | - |
| 1788387215 | 24.44° C | 29% | 1011 hPa | 0 mm | - | - | - |
| 1788386916 | 24.44° C | 27% | 1011 hPa | 0 mm | - | - | - |
| 1788386614 | 24.44° C | 27% | 1011 hPa | 0 mm | - | - | - |
| 1788386314 | 24.44° C | 27% | 1011.3 hPa | 0 mm | - | - | - |
| 1788386016 | 24.44° C | 29% | 1011.2 hPa | 0 mm | - | - | - |
| 1788385844 | 24.44° C | 28% | 1011.2 hPa | 0 mm | - | - | - |
* Rain latest hour (hover to see other rain measurements)
** Current wind speed in m/s (hover to see current wind gust speed)